Location: Banska Bystrica
(0.0000°N, 19.1500°E)
Time: 05:09:35
(UTC+01:00)

Cosmos 2297 - Pass Details

Date: 19 February 2019
Orbit: 834 x 860 km, 71.0° (Epoch: 22 March)

Event Time Altitude Azimuth Distance (km) Brightness Sun altitude
Rises 19:23:17 0° 188° (S) 3,381 7.1 -21.1°
Reaches altitude 10° 19:25:45 10° 184° (S) 2,447 6.3 -21.7°
Maximum altitude 19:31:16 59° 105° (ESE) 966 3.6 -23.0°
Enters shadow 19:32:01 54° 72° (ENE) 1,014 3.7 -23.2°
